Location: Ayer Observatory
(42.2600°N, 71.0700°W)
Time: 14:39:14
(UTC-04:00)

Max Valier Satellite - Visible Passes

Search period start: 15 July 2019 00:00
Search period end: 25 July 2019 00:00
Orbit: 490 x 509 km, 97.4° (Epoch: 15 July)

Date Brightness Start Highest point End Pass type
(mag) Time Alt. Az. Time Alt. Az. Time Alt. Az.
15 Jul ? 21:56:48 15° S 21:59:37 48° W 22:03:11 10° NNW visible
16 Jul ? 21:36:54 15° SSE 21:39:51 89° W 21:43:32 10° NNW visible
17 Jul ? 21:16:59 13° SSE 21:20:08 49° ENE 21:23:41 10° N visible
17 Jul ? 22:53:22 10° WSW 22:54:10 11° W 22:54:57 10° WNW visible
18 Jul ? 20:57:18 10° SE 21:00:28 28° ENE 21:03:39 10° N visible
18 Jul ? 22:31:45 10° SW 22:34:15 18° W 22:36:50 10° NW visible
19 Jul ? 22:11:50 15° SSW 22:14:23 31° W 22:17:40 10° NNW visible
20 Jul ? 21:51:56 17° S 21:54:34 56° W 21:58:10 10° NNW visible
21 Jul ? 21:32:02 17° SSE 21:34:49 79° ENE 21:38:28 10° N visible
22 Jul ? 21:12:07 13° SE 21:15:06 42° ENE 21:18:34 10° N visible
22 Jul ? 22:47:34 10° WSW 22:49:04 12° W 22:50:33 10° WNW visible
23 Jul ? 20:52:26 10° SE 20:55:26 25° ENE 20:58:27 10° NNE visible
23 Jul ? 22:26:53 13° SW 22:29:09 21° W 22:31:57 10° NW visible
24 Jul ? 22:06:59 17° SSW 22:09:18 35° W 22:12:40 10° NNW visible
